SL-14 DEB, 45288

Orbit data source: Space-Track

SL-14 DEB, 45288 is space debris in LEO originally from a launch on Thu, 15 Aug 1991 UTC launched from the Plesetsk Missile And Space Complex (PKMTR). Debris objects in space refer to the collection of defunct objects orbiting the Earth. Examples of debris include non-operational satellites, rocket bodies, and fragments generated from explosions, collisions, or faulty payload assembly.

Loading next visibility...
Identifier
45288, 1991-056AA
Orbit
LEO
Last TLE update
20 hours ago
Origin
Manufacturer
Unknown
Mission
Spacecraft
Bus & Motor
Unknown
Mass
Unknown
Launch date (UTC)
1991-08-15 (34 years ago)
Launch vehicle
Unknown
Launch site
Plesetsk Missile And Space Complex (PKMTR)
Object type
Payload
Rocket body
Debris
Shape & HBR
Unknown
Radar Cross Section
Small (<0.1 m²)

Expand to show TLE details & history

TLE from 20 hours ago
0 SL-14 DEB
1 45288U 91056AA  25174.83501844  .00001807  00000-0  59040-2 0  9996
2 45288  82.6144 128.0180 0283806   9.3755 351.2493 12.88247592250170
Epoch: 2025-06-23T20:02Z
TLE epoch observation values (Epoch: 2025-06-23T20:02:25.593Z)
Latitude
0.00001°
Longitude
-84.82823°
Altitude
1,095.756 km
Speed
7.406 km/s
True Right ascension
08h 32m 04s
True Declination
0° 00' 00"
Sunlit
Object was in daylight at epoch
Visualization orbit readout
Latitude
-72.29022°
Longitude
-109.20893°
Altitude
1,295.405 km
Speed
7.227 km/s
Apparent Right ascension
13h 29m 38s
Apparent Declination
-70° 46' 22"
Sunlit
Object is in daylight
Visualization observer readout
Local Sidereal Time
03:22:19
Azimuth
163.879° S
Elevation
-55.948°
Doppler factor
1
Orbital elements
Apogee altitude
1,523.84 km
Perigee altitude
1,087.692 km
Semi-major axis
7,683.903 km
Eccentricity
0.02838
Inclination
82.6144°
RAAN
128.018°
Arg. of periapsis
9.3755°
True anomaly
Unknown
Mean anomaly
351.2493°
Eccentric anomaly
Unknown
Mean motion
3.22233 °/min
Orbital period
111.72 mins
BSTAR
0.005904
Loading maneuver chart data...
Loading SW <> Apogee altitude chart data...
Loading historical data...
Loading historical data...
Loading historical data...
Loading historical data...
Loading historical data...
Loading historical data...
Loading historical data...

SL-14 DEB Visibility forecast

Observer location: undefined°, undefined°

Span
Click to sort rows by Start time (UTC) header in descending order
Start Az.
Max El. time (UTC)
Max El. Az.
Max El.
End time (UTC)
End Az.
10 mins2025-06-24 20:23:31.904Z132.387° SE2025-06-24 20:28:31.904Z78.054° E23.72°2025-06-24 20:33:31.904Z31.613° NE
11 mins2025-06-24 22:15:31.904Z216.155° SW2025-06-24 22:20:31.904Z288.891° WNW36.611°2025-06-24 22:26:31.904Z355.222° N
15 mins2025-06-25 08:02:31.904Z4.5° NNE2025-06-25 08:09:31.904Z80.799° E38.994°2025-06-25 08:17:31.904Z152.986° SSE
12 mins2025-06-25 09:56:31.904Z324.568° NNW2025-06-25 10:01:31.904Z277.126° WNW28.402°2025-06-25 10:08:31.904Z218.658° SW
|